This is the latest recevied weather packets stored in our database for station/object LZ1ASO-10. If no packets are shown the sender has not sent any weather packets the latest 10 day(s).
| Time | Temp. | Humidity | Pressure | Rain* | Wind** | Luminosity | Snow |
|---|---|---|---|---|---|---|---|
| 1778164997 | 23.89° C | 38% | 1019.2 hPa | - | - | - | - |
| 1778164097 | 23.89° C | 38% | 1019.2 hPa | - | - | - | - |
| 1778163197 | 23.89° C | 38% | 1019.3 hPa | - | - | - | - |
| 1778162297 | 23.89° C | 38% | 1019.3 hPa | - | - | - | - |
| 1778161397 | 24.44° C | 38% | 1019.4 hPa | - | - | - | - |
| 1778160497 | 24.44° C | 37% | 1019.4 hPa | - | - | - | - |
| 1778159597 | 25° C | 36% | 1019.5 hPa | - | - | - | - |
| 1778158697 | 24.44° C | 37% | 1019.5 hPa | - | - | - | - |
| 1778157796 | 24.44° C | 37% | 1019.6 hPa | - | - | - | - |
| 1778156896 | 23.89° C | 37% | 1019.7 hPa | - | - | - | - |
| 1778155996 | 23.33° C | 38% | 1019.8 hPa | - | - | - | - |
| 1778155096 | 23.33° C | 39% | 1020 hPa | - | - | - | - |
| 1778154196 | 22.78° C | 39% | 1020 hPa | - | - | - | - |
| 1778153296 | 22.78° C | 40% | 1020 hPa | - | - | - | - |
| 1778152395 | 22.22° C | 40% | 1020.1 hPa | - | - | - | - |
| 1778151495 | 22.22° C | 40% | 1020.3 hPa | - | - | - | - |
| 1778150595 | 22.22° C | 40% | 1020.1 hPa | - | - | - | - |
| 1778149695 | 22.22° C | 41% | 1020.3 hPa | - | - | - | - |
| 1778148795 | 21.67° C | 41% | 1020.2 hPa | - | - | - | - |
| 1778147894 | 21.11° C | 43% | 1020.1 hPa | - | - | - | - |
| 1778146995 | 21.67° C | 42% | 1020.2 hPa | - | - | - | - |
| 1778146094 | 21.67° C | 42% | 1020.1 hPa | - | - | - | - |
| 1778145193 | 21.11° C | 42% | 1020.3 hPa | - | - | - | - |
| 1778144293 | 21.11° C | 43% | 1020.2 hPa | - | - | - | - |
| 1778143393 | 20.56° C | 43% | 1020.1 hPa | - | - | - | - |
* Rain since midnight (hover to see other rain measurements)
** Current wind speed in m/s (hover to see current wind gust speed)